,,Stat5,,Stat1,,Stat2,,Stat3,,Stat4,,Wind1,,Wind1,
time,status,PA1M_AVG,status,PR1M_SUM,status,RH1M_AVG,status,SR1M_AVG,status,TA1M_AVG,status,W1dAve1m,status,W1sAve1m,
2002-09-01, 07:03:00,INVALID,0,VALID,0,VALID,98.9315,VALID,33.4437,VALID,19.1606,VALID,51,VALID,0.341372,
2002-09-01, 07:04:00,VALID,919.442,VALID,0,VALID,99.0097,VALID,33.9956,VALID,19.2053,VALID,75,VALID,0.546258,
2002-09-01, 07:05:00,VALID,919.436,VALID,0,VALID,99.0427,VALID,34.6749,VALID,19.2503,VALID,90,VALID,0.698918,
2002-09-01, 07:07:00,INVALID,0,VALID,0,VALID,98.9792,VALID,34.865,VALID,19.2669,VALID,110,VALID,0.355469,
2002-09-01, 07:08:00,VALID,919.459,VALID,0,VALID,98.9779,VALID,35.1673,VALID,19.257,VALID,129,VALID,0.618945,
2002-09-01, 07:09:00,VALID,919.475,VALID,0,VALID,99.0287,VALID,36.1012,VALID,19.2865,VALID,138,VALID,0.823518,
2002-09-01, 07:12:00,INVALID,0,VALID,0,VALID,98.2674,VALID,57.548,VALID,19.7415,VALID,35,VALID,0.239063,
2002-09-01, 07:13:00,VALID,918.513,VALID,0,VALID,98.2594,VALID,60.7404,VALID,19.7571,VALID,35,VALID,0.0844984,
2002-09-01, 07:14:00,VALID,918.491,VALID,0,VALID,98.2632,VALID,64.629,VALID,19.7927,VALID,35,VALID,0,
2002-09-01, 07:15:00,VALID,918.455,VALID,0,VALID,98.2899,VALID,68.3478,VALID,19.8282,VALID,35,VALID,0,
2002-09-01, 07:16:00,VALID,918.436,VALID,0,VALID,98.2772,VALID,71.4044,VALID,19.864,VALID,35,VALID,0,
2002-09-01, 07:17:00,VALID,918.415,VALID,0,VALID,98.2442,VALID,74.7326,VALID,19.8829,VALID,35,VALID,0,
2002-09-01, 07:18:00,VALID,918.413,VALID,0,VALID,98.2531,VALID,78.2477,VALID,19.9251,VALID,35,VALID,0,
2002-09-01, 07:19:00,VALID,918.415,VALID,0,VALID,98.1602,VALID,80.9646,VALID,19.948,VALID,35,VALID,0,
2002-09-01, 07:20:00,VALID,918.422,VALID,0,VALID,98.0407,VALID,83.6476,VALID,19.9445,VALID,35,VALID,0,
2002-09-01, 07:21:00,VALID,918.437,VALID,0,VALID,98.0115,VALID,85.7362,VALID,19.9865,VALID,30,VALID,0.192023,
2002-09-01, 07:22:00,VALID,918.456,VALID,0,VALID,97.8729,VALID,86.823,VALID,19.9731,VALID,10,VALID,0.761068,
2002-09-01, 07:23:00,VALID,918.457,VALID,0,VALID,97.7482,VALID,87.74,VALID,19.9892,VALID,17,VALID,1.02118,
2002-09-01, 07:24:00,VALID,918.47,VALID,0,VALID,97.6147,VALID,90.1003,VALID,20.0091,VALID,24,VALID,0.908705,
2002-09-01, 07:25:00,VALID,918.484,VALID,0,VALID,97.4914,VALID,91.6455,VALID,19.9957,VALID,9,VALID,0.816883,
2002-09-01, 07:26:00,VALID,918.5,VALID,0,VALID,97.4558,VALID,92.5455,VALID,20.0153,VALID,11,VALID,0.711993,
2002-09-01, 07:27:00,VALID,918.515,VALID,0,VALID,97.41,VALID,91.8493,VALID,20.0203,VALID,15,VALID,0.737048,
2002-09-01, 07:28:00,VALID,918.527,VALID,0,VALID,97.2587,VALID,91.5267,VALID,20.0203,VALID,12,VALID,0.888514,
2002-09-01, 07:29:00,VALID,918.55,VALID,0,VALID,97.0641,VALID,91.8493,VALID,20.0004,VALID,11,VALID,0.923437,
2002-09-01, 07:30:00,VALID,918.566,VALID,0,VALID,97.1557,VALID,91.9852,VALID,20.027,VALID,14,VALID,0.798109,
2002-09-01, 07:31:00,VALID,918.593,VALID,0,VALID,97.0234,VALID,92.0531,VALID,20.0197,VALID,4,VALID,1.11415,
2002-09-01, 07:32:00,VALID,918.604,VALID,0,VALID,97.1213,VALID,91.7304,VALID,20.0299,VALID,1,VALID,0.554688,
2002-09-01, 07:33:00,VALID,918.621,VALID,0,VALID,97.0387,VALID,92.0701,VALID,20.0461,VALID,356,VALID,0.819257,
2002-09-01, 07:34:00,VALID,918.627,VALID,0,VALID,97.0629,VALID,92.2569,VALID,20.0419,VALID,14,VALID,0.972005,
2002-09-01, 07:35:00,VALID,918.665,VALID,0,VALID,96.9878,VALID,92.2908,VALID,20.0356,VALID,309,VALID,0.634115,
2002-09-01, 07:36:00,VALID,918.674,VALID,0,VALID,96.9128,VALID,91.9852,VALID,20.023,VALID,337,VALID,0.483953,
2002-09-01, 07:37:00,VALID,918.711,VALID,0,VALID,97.0463,VALID,88.7418,VALID,20.0453,VALID,350,VALID,0.143298,
2002-09-01, 07:38:00,VALID,918.733,VALID,0,VALID,97.0857,VALID,82.357,VALID,20.0451,VALID,333,VALID,0.0686678,
2002-09-01, 07:39:00,VALID,918.761,VALID,0,VALID,97.0374,VALID,72.8817,VALID,20.0545,VALID,278,VALID,0.185937,
2002-09-01, 07:40:00,VALID,918.783,VALID,0,VALID,97.0743,VALID,63.763,VALID,20.0488,VALID,245,VALID,0.435238,
2002-09-01, 07:46:00,VALID,919.959,VALID,0,VALID,97.1264,VALID,98.2341,VALID,20.2832,VALID,55,VALID,0.416466,
2002-09-01, 07:47:00,VALID,919.97,VALID,0,VALID,96.717,VALID,100.628,VALID,20.2931,VALID,52,VALID,0.338742,
2002-09-01, 07:48:00,VALID,919.995,VALID,0,VALID,96.6496,VALID,103.277,VALID,20.3287,VALID,33,VALID,0.594141,
2002-09-01, 07:49:00,VALID,920.024,VALID,0,VALID,96.6407,VALID,105.349,VALID,20.3602,VALID,15,VALID,0.731908,
2002-09-01, 07:50:00,VALID,920.055,VALID,0,VALID,96.5517,VALID,106.555,VALID,20.4221,VALID,30,VALID,0.643012,
2002-09-01, 07:51:00,VALID,920.078,VALID,0,VALID,96.1893,VALID,107.709,VALID,20.4477,VALID,31,VALID,0.418403,
2002-09-01, 07:52:00,VALID,920.1,VALID,0,VALID,96.0443,VALID,108.915,VALID,20.4894,VALID,38,VALID,0.281883,
2002-09-01, 07:53:00,VALID,920.111,VALID,0,VALID,95.5064,VALID,109.934,VALID,20.5123,VALID,54,VALID,0.202665,
2002-09-01, 07:54:00,VALID,920.125,VALID,0,VALID,95.4047,VALID,111.666,VALID,20.5118,VALID,52,VALID,4.86158,
2002-09-01, 07:55:00,VALID,920.146,VALID,0,VALID,95.2216,VALID,114.587,VALID,20.5603,VALID,68,VALID,0.324002,
2002-09-01, 07:56:00,VALID,920.158,VALID,0,VALID,94.952,VALID,118.068,VALID,20.602,VALID,95,VALID,0.579564,
2002-09-01, 08:00:00,VALID,919.013,VALID,0,VALID,97.2956,VALID,48.1746,VALID,20.111,VALID,13,VALID,0.00694444,
2002-09-01, 08:01:00,VALID,919.022,VALID,0,VALID,97.1366,VALID,44.286,VALID,20.1142,VALID,11,VALID,0.0615234,
2002-09-01, 08:33:00,INVALID,0,VALID,0,VALID,96.8596,VALID,270.912,VALID,20.6045,VALID,340,VALID,0.408936,
2002-09-01, 08:34:00,VALID,919.378,VALID,0,VALID,96.4512,VALID,311.021,VALID,20.63,VALID,24,VALID,0.783984,
2002-09-01, 08:35:00,VALID,919.383,VALID,0,VALID,96.2299,VALID,338.615,VALID,20.6974,VALID,17,VALID,0.702744,
2002-09-01, 08:36:00,VALID,919.401,VALID,0,VALID,96.1994,VALID,415.198,VALID,20.8048,VALID,4,VALID,0.587377,
2002-09-01, 08:37:00,VALID,919.403,VALID,0,VALID,96.2236,VALID,380.523,VALID,20.9593,VALID,20,VALID,1.27154,
2002-09-01, 08:38:00,VALID,919.411,VALID,0,VALID,96.1448,VALID,329.241,VALID,21.1432,VALID,5,VALID,0.926482,
2002-09-01, 08:39:00,VALID,919.414,VALID,0,VALID,95.3297,VALID,302.581,VALID,21.2528,VALID,332,VALID,0.496795,
2002-09-01, 08:40:00,VALID,919.394,VALID,0,VALID,93.2964,VALID,290.05,VALID,21.1817,VALID,316,VALID,0.774805,
2002-09-01, 08:41:00,VALID,919.387,VALID,0,VALID,93.6626,VALID,301.512,VALID,21.1979,VALID,12,VALID,1.4891,
2002-09-01, 08:42:00,VALID,919.376,VALID,0,VALID,93.0586,VALID,320.921,VALID,21.2173,VALID,20,VALID,1.81858,
2002-09-01, 08:43:00,VALID,919.363,VALID,0,VALID,93.908,VALID,336.9,VALID,21.3075,VALID,357,VALID,0.787977,
2002-09-01, 08:44:00,VALID,919.373,VALID,0,VALID,93.0751,VALID,301.953,VALID,21.3786,VALID,347,VALID,0.690878,
2002-09-01, 08:45:00,VALID,919.385,VALID,0,VALID,92.0502,VALID,247.801,VALID,21.3581,VALID,350,VALID,0.461397,
2002-09-01, 08:46:00,VALID,919.404,VALID,0,VALID,92.5855,VALID,252.794,VALID,21.4462,VALID,353,VALID,0.388021,
2002-09-01, 08:47:00,VALID,919.418,VALID,0,VALID,91.7463,VALID,283.325,VALID,21.4782,VALID,354,VALID,0.709635,
2002-09-01, 08:48:00,VALID,919.427,VALID,0,VALID,92.2104,VALID,323.909,VALID,21.5054,VALID,11,VALID,0.865543,
2002-09-01, 08:49:00,VALID,919.448,VALID,0,VALID,92.953,VALID,470.912,VALID,21.6212,VALID,23,VALID,1.0956,
2002-09-01, 08:50:00,VALID,919.481,VALID,0,VALID,92.2257,VALID,307.947,VALID,21.7766,VALID,22,VALID,0.454688,
2002-09-01, 08:51:00,VALID,919.482,VALID,0,VALID,91.0634,VALID,204.483,VALID,21.9226,VALID,357,VALID,0.891447,
2002-09-01, 08:52:00,VALID,919.496,VALID,0,VALID,90.0245,VALID,204.653,VALID,21.9896,VALID,23,VALID,1.5222,
2002-09-01, 08:53:00,VALID,919.517,VALID,0,VALID,89.2692,VALID,240.432,VALID,22.012,VALID,24,VALID,0.738598,
2002-09-01, 08:54:00,VALID,919.535,VALID,0,VALID,89.4637,VALID,244.558,VALID,22.0184,VALID,355,VALID,0.547309,
2002-09-01, 08:55:00,VALID,919.556,VALID,0,VALID,89.1408,VALID,296.723,VALID,21.9926,VALID,350,VALID,0.574908,
2002-09-01, 08:56:00,VALID,919.578,VALID,0,VALID,89.5159,VALID,322.687,VALID,21.9699,VALID,17,VALID,0.51582,
2002-09-01, 08:57:00,VALID,919.594,VALID,0,VALID,89.61,VALID,451.13,VALID,22.0634,VALID,21,VALID,0.89984,
2002-09-01, 08:58:00,VALID,919.61,VALID,0,VALID,89.3493,VALID,346.035,VALID,22.1606,VALID,40,VALID,0.311022,
2002-09-01, 08:59:00,VALID,919.619,VALID,0,VALID,88.5164,VALID,316.862,VALID,22.1889,VALID,237,VALID,0.290296,
2002-09-01, 09:00:00,VALID,919.611,VALID,0,VALID,87.9569,VALID,351.843,VALID,22.1627,VALID,242,VALID,0.380526,
2002-09-01, 09:01:00,VALID,919.609,VALID,0,VALID,88.5609,VALID,390.508,VALID,22.2562,VALID,240,VALID,0.0450247,
2002-09-01, 09:02:00,VALID,919.61,VALID,0,VALID,88.0599,VALID,337.12,VALID,22.3717,VALID,353,VALID,0.575452,
2002-09-01, 09:03:00,VALID,919.599,VALID,0,VALID,88.1959,VALID,329.326,VALID,22.4931,VALID,336,VALID,0.708767,
2002-09-01, 09:04:00,VALID,919.596,VALID,0,VALID,87.0782,VALID,346.103,VALID,22.6059,VALID,31,VALID,0.930743,
2002-09-01, 09:05:00,VALID,919.57,VALID,0,VALID,85.6197,VALID,341.111,VALID,22.6829,VALID,3,VALID,0.761161,
2002-09-01, 09:06:00,VALID,919.574,VALID,0,VALID,86.8951,VALID,295.093,VALID,22.6932,VALID,34,VALID,0.684211,
2002-09-01, 09:07:00,VALID,919.558,VALID,0,VALID,86.3305,VALID,275.174,VALID,22.7117,VALID,24,VALID,0.963471,
2002-09-01, 09:08:00,VALID,919.571,VALID,0,VALID,85.8244,VALID,264.001,VALID,22.6441,VALID,7,VALID,1.51803,
2002-09-01, 09:09:00,VALID,919.567,VALID,0,VALID,86.3763,VALID,263.882,VALID,22.5369,VALID,24,VALID,1.74704,
2002-09-01, 09:10:00,VALID,919.578,VALID,0,VALID,87.4571,VALID,266.48,VALID,22.4664,VALID,15,VALID,1.08203,
2002-09-01, 09:11:00,VALID,919.604,VALID,0,VALID,87.9658,VALID,252.352,VALID,22.4761,VALID,11,VALID,1.03947,
2002-09-01, 09:12:00,VALID,919.611,VALID,0,VALID,86.4284,VALID,220.462,VALID,22.3586,VALID,29,VALID,1.27517,
2002-09-01, 09:13:00,VALID,919.623,VALID,0,VALID,86.8569,VALID,184.497,VALID,22.2383,VALID,36,VALID,1.38867,
2002-09-01, 09:14:00,VALID,919.644,VALID,0,VALID,87.5818,VALID,153.32,VALID,22.1123,VALID,12,VALID,1.29215,
2002-09-01, 09:15:00,VALID,919.643,VALID,0,VALID,87.7623,VALID,129.768,VALID,21.9998,VALID,11,VALID,1.2704,
2002-09-01, 09:16:00,VALID,919.616,VALID,0,VALID,88.5202,VALID,112.209,VALID,21.8694,VALID,18,VALID,1.59413,
2002-09-01, 09:17:00,VALID,919.617,VALID,0,VALID,89.4447,VALID,99.5926,VALID,21.8403,VALID,23,VALID,1.40815,
2002-09-01, 09:18:00,VALID,919.62,VALID,0,VALID,89.376,VALID,92.7323,VALID,21.8409,VALID,12,VALID,1.07689,
